Hourly Weather Altynemel

Today, 7 July, Tuesday

Time Temperature Precipitation Wind Pressure Humidity
00:00 +15°C° 0 mm 1 mps 653 mmHg 65%
01:00 +15°C° 0 mm 1 mps 653 mmHg 65%
02:00 +14°C° 0 mm 1 mps 653 mmHg 65%
03:00 +14°C° 0 mm 1 mps 653 mmHg 64%
04:00 +15°C° 0 mm 1 mps 653 mmHg 64%
05:00 +15°C° 0 mm 1 mps 653 mmHg 63%
06:00 +18°C° 0 mm 1 mps 654 mmHg 56%
07:00 +19°C° 0 mm 2 mps 654 mmHg 49%
08:00 +20°C° 0 mm 2 mps 655 mmHg 42%
09:00 +21°C° 0 mm 2 mps 655 mmHg 39%
10:00 +24°C° 0 mm 2 mps 655 mmHg 36%
11:00 +25°C° 0 mm 3 mps 655 mmHg 32%
12:00 +25°C° 0 mm 2 mps 655 mmHg 30%
13:00 +26°C° 0 mm 1 mps 655 mmHg 28%
14:00 +26°C° 0 mm 1 mps 655 mmHg 26%
15:00 +27°C° 0 mm 1 mps 655 mmHg 26%
16:00 +27°C° 0 mm 2 mps 655 mmHg 25%
17:00 +27°C° 0 mm 2 mps 655 mmHg 24%
18:00 +25°C° 0 mm 2 mps 655 mmHg 29%
19:00 +23°C° 0 mm 2 mps 654 mmHg 35%
20:00 +20°C° 0 mm 2 mps 654 mmHg 40%
21:00 +19°C° 0 mm 2 mps 653 mmHg 41%
22:00 +19°C° 0 mm 2 mps 653 mmHg 42%
23:00 +18°C° 0 mm 2 mps 653 mmHg 43%

Tomorrow, 8 July, Wednesday

Time Temperature Precipitation Wind Pressure Humidity
00:00 +18°C° 0 mm 2 mps 653 mmHg 42%
01:00 +18°C° 0 mm 2 mps 653 mmHg 41%
02:00 +18°C° 0 mm 2 mps 653 mmHg 40%
03:00 +18°C° 0 mm 2 mps 653 mmHg 41%
04:00 +19°C° 0 mm 1 mps 653 mmHg 42%
05:00 +19°C° 0 mm 1 mps 653 mmHg 42%
06:00 +21°C° 0 mm 1 mps 654 mmHg 37%
07:00 +24°C° 0 mm 1 mps 654 mmHg 32%
08:00 +26°C° 0 mm 1 mps 655 mmHg 27%
09:00 +27°C° 0 mm 1 mps 655 mmHg 25%
10:00 +28°C° 0 mm 2 mps 655 mmHg 24%
11:00 +29°C° 0 mm 2 mps 655 mmHg 23%
12:00 +29°C° 0 mm 3 mps 655 mmHg 22%
13:00 +30°C° 0 mm 3 mps 654 mmHg 22%
14:00 +30°C° 0 mm 4 mps 654 mmHg 21%
15:00 +30°C° 0 mm 4 mps 654 mmHg 22%
16:00 +29°C° 0 mm 4 mps 654 mmHg 23%
17:00 +29°C° 0 mm 4 mps 654 mmHg 24%
18:00 +27°C° 0 mm 4 mps 653 mmHg 30%
19:00 +23°C° 0 mm 4 mps 653 mmHg 36%
20:00 +21°C° 0 mm 3 mps 652 mmHg 41%
21:00 +20°C° 0 mm 3 mps 652 mmHg 43%
22:00 +19°C° 0 mm 2 mps 652 mmHg 45%
23:00 +18°C° 0 mm 2 mps 652 mmHg 47%

Day after tomorrow, 9 July, Thursday

Time Temperature Precipitation Wind Pressure Humidity
00:00 +19°C° 0 mm 1 mps 652 mmHg 46%
01:00 +19°C° 0 mm 1 mps 652 mmHg 45%
02:00 +19°C° 0 mm 1 mps 651 mmHg 44%
03:00 +19°C° 0 mm 1 mps 652 mmHg 45%
04:00 +19°C° 0 mm 1 mps 652 mmHg 46%
05:00 +19°C° 0 mm 1 mps 652 mmHg 47%
06:00 +21°C° 0 mm 1 mps 652 mmHg 43%
07:00 +23°C° 0 mm 1 mps 653 mmHg 38%
08:00 +25°C° 0 mm 2 mps 653 mmHg 33%
09:00 +26°C° 0 mm 2 mps 654 mmHg 31%
10:00 +27°C° 0 mm 3 mps 654 mmHg 29%
11:00 +28°C° 0 mm 3 mps 654 mmHg 28%
12:00 +28°C° 0 mm 4 mps 654 mmHg 27%
13:00 +29°C° 0 mm 4 mps 654 mmHg 25%
14:00 +29°C° 0 mm 4 mps 653 mmHg 24%
15:00 +29°C° 0 mm 5 mps 653 mmHg 25%
16:00 +28°C° 0 mm 5 mps 653 mmHg 26%
17:00 +28°C° 0 mm 5 mps 653 mmHg 27%
18:00 +26°C° 0 mm 4 mps 652 mmHg 32%
19:00 +24°C° 0 mm 3 mps 651 mmHg 37%
20:00 +21°C° 0 mm 2 mps 651 mmHg 42%
21:00 +20°C° 0 mm 2 mps 651 mmHg 43%
22:00 +19°C° 0 mm 2 mps 650 mmHg 45%
23:00 +19°C° 0 mm 1 mps 650 mmHg 46%

10 July, Friday

Time Temperature Precipitation Wind Pressure Humidity
00:00 +19°C° 0 mm 1 mps 650 mmHg 47%
01:00 +18°C° 0 mm 1 mps 650 mmHg 48%
02:00 +18°C° 0 mm 1 mps 650 mmHg 49%
03:00 +18°C° 0 mm 1 mps 650 mmHg 50%
04:00 +18°C° 0 mm 1 mps 650 mmHg 51%
05:00 +18°C° 0 mm 1 mps 650 mmHg 52%
06:00 +20°C° 0 mm 1 mps 651 mmHg 47%
07:00 +22°C° 0 mm 1 mps 651 mmHg 42%
08:00 +24°C° 0 mm 1 mps 652 mmHg 37%
09:00 +25°C° 0 mm 2 mps 652 mmHg 34%
10:00 +26°C° 0 mm 3 mps 652 mmHg 32%
11:00 +27°C° 0 mm 3 mps 652 mmHg 29%
12:00 +28°C° 0 mm 4 mps 651 mmHg 28%
13:00 +28°C° 0 mm 5 mps 651 mmHg 27%
14:00 +29°C° 0 mm 5 mps 651 mmHg 26%
15:00 +28°C° 0 mm 5 mps 651 mmHg 26%
16:00 +28°C° 0 mm 6 mps 651 mmHg 26%
17:00 +27°C° 0 mm 6 mps 650 mmHg 27%
18:00 +26°C° 0 mm 5 mps 650 mmHg 33%
19:00 +23°C° 0 mm 5 mps 650 mmHg 39%
20:00 +21°C° 0 mm 4 mps 650 mmHg 44%
21:00 +20°C° 0 mm 3 mps 650 mmHg 46%
22:00 +19°C° 0 mm 3 mps 650 mmHg 48%
23:00 +18°C° 0 mm 2 mps 649 mmHg 51%

11 July, Saturday

Time Temperature Precipitation Wind Pressure Humidity
00:00 +18°C° 0 mm 2 mps 649 mmHg 53%
01:00 +17°C° 0 mm 2 mps 649 mmHg 55%
02:00 +18°C° 0 mm 1 mps 649 mmHg 57%
03:00 +18°C° 0 mm 1 mps 649 mmHg 58%
04:00 +18°C° 0 mm 1 mps 649 mmHg 59%
05:00 +18°C° 0 mm 1 mps 649 mmHg 61%
06:00 +19°C° 0 mm 2 mps 650 mmHg 54%
07:00 +21°C° 0 mm 3 mps 651 mmHg 48%
08:00 +25°C° 0 mm 3 mps 652 mmHg 41%
09:00 +26°C° 0 mm 4 mps 652 mmHg 38%
10:00 +26°C° 0 mm 5 mps 652 mmHg 36%
11:00 +27°C° 0 mm 5 mps 652 mmHg 33%
12:00 +28°C° 0 mm 5 mps 652 mmHg 33%
13:00 +28°C° 0 mm 6 mps 652 mmHg 32%
14:00 +29°C° 0 mm 6 mps 652 mmHg 31%
15:00 +28°C° 0 mm 6 mps 652 mmHg 33%
16:00 +27°C° 0 mm 7 mps 652 mmHg 35%
17:00 +27°C° 0 mm 7 mps 651 mmHg 37%
18:00 +24°C° 0 mm 6 mps 651 mmHg 42%
19:00 +23°C° 0 mm 6 mps 651 mmHg 46%
20:00 +22°C° 0 mm 5 mps 651 mmHg 51%
21:00 +21°C° 0 mm 4 mps 651 mmHg 55%
22:00 +20°C° 0 mm 3 mps 651 mmHg 59%
23:00 +19°C° 0 mm 2 mps 651 mmHg 64%

12 July, Sunday

Time Temperature Precipitation Wind Pressure Humidity
00:00 +18°C° 0 mm 2 mps 651 mmHg 65%
01:00 +18°C° 0 mm 2 mps 651 mmHg 67%
02:00 +18°C° 0 mm 1 mps 651 mmHg 68%
03:00 +18°C° 0 mm 1 mps 651 mmHg 69%
04:00 +18°C° 0 mm 1 mps 651 mmHg 70%
05:00 +18°C° 0 mm 1 mps 651 mmHg 70%
06:00 +20°C° 0 mm 1 mps 651 mmHg 62%
07:00 +22°C° 0 mm 1 mps 652 mmHg 54%
08:00 +24°C° 0 mm 1 mps 653 mmHg 46%
09:00 +26°C° 0 mm 1 mps 653 mmHg 41%
10:00 +27°C° 0 mm 1 mps 653 mmHg 36%
11:00 +29°C° 0 mm 2 mps 653 mmHg 31%
12:00 +30°C° 0 mm 3 mps 653 mmHg 28%
13:00 +31°C° 0 mm 3 mps 652 mmHg 26%
14:00 +32°C° 0 mm 4 mps 652 mmHg 24%
15:00 +32°C° 0 mm 5 mps 652 mmHg 24%
16:00 +32°C° 0 mm 5 mps 652 mmHg 24%
17:00 +30°C° 0 mm 6 mps 651 mmHg 25%
18:00 +28°C° 0 mm 5 mps 651 mmHg 29%
19:00 +26°C° 0 mm 3 mps 651 mmHg 33%
20:00 +24°C° 0 mm 2 mps 650 mmHg 37%
21:00 +23°C° 0 mm 1 mps 650 mmHg 38%
22:00 +23°C° 0 mm 1 mps 650 mmHg 40%
23:00 +22°C° 0 mm 1 mps 650 mmHg 41%
Show more